Powrót do katalogu

NOAA 16 DEB

AktywnySSO
NORAD 41220·DEBRIS·🇺🇸 United States

Wystrzelony Sep 21, 2000 z Vandenberg Space Force Base

Loading…

Następne Przeloty (najbliższe 24 godziny)

TLE

ŚwieżeSource: Space-Track

Epoka: Sep 14, 2026, 01:38 UTC

1 41220U 00055DZ  26257.06854424  .00001743  00000-0  78837-3 0  9995
2 41220  98.6657 303.4999 0012689 282.8536  77.1225 14.23281218554830

Śledź NOAA 16 DEB w czasie rzeczywistym z AllMySat

Download on the App Store